Theta_e
317 319 319 321 322 323 324 324 322 323 325 324 321 320 323 322 320 321 320 320 323 324 326 328 328 330 331 332 333 336 341 344 347 349 350 350 351 351 350 350 350 349 349 348 348 348 348 348 348 348 348 348 348 348 349 349 349 349 349 349 349 349 349
319 318 319 320 321 323 323 322 323 325 326 325 323 322 323 322 321 322 320 318 319 320 323 328 329 329 330 331 331 333 338 342 346 348 348 349 350 350 350 350 350 349 349 348 348 348 347 347 347 347 348 347 348 348 348 348 349 349 349 349 349 349 349
318 318 319 321 322 323 323 324 325 325 323 323 324 323 323 322 321 322 320 319 319 319 321 327 330 329 330 332 333 332 335 341 344 345 347 349 349 350 351 350 350 350 349 348 348 348 348 347 347 347 347 347 348 348 348 348 348 347 348 348 349 349 349
317 318 319 320 322 324 324 325 326 326 324 323 324 324 323 323 322 322 321 319 319 321 324 326 329 332 331 333 335 335 335 340 343 343 346 348 349 350 350 350 350 350 349 349 348 348 348 348 347 347 347 347 347 348 348 349 348 348 347 347 348 348 349
316 319 320 320 321 323 323 323 324 325 325 324 325 324 323 322 323 323 322 320 319 323 328 327 327 331 332 333 337 337 336 338 341 343 345 347 348 349 349 349 350 350 349 349 349 348 348 348 347 347 347 347 348 348 348 348 348 348 347 347 347 347 348
317 319 319 319 319 319 319 321 322 323 323 323 323 324 323 322 322 323 323 321 321 325 330 328 326 329 330 333 336 337 337 338 339 342 344 345 346 346 347 348 349 349 349 349 349 349 349 349 348 347 347 348 348 348 348 348 348 348 347 347 347 347 348
317 318 317 317 317 316 317 318 320 321 322 322 322 324 324 322 323 323 322 322 323 328 334 331 328 330 330 332 335 336 337 337 338 340 342 342 342 342 344 346 348 349 348 348 349 349 349 348 348 347 347 348 347 347 347 347 347 347 347 347 347 347 347
316 316 316 316 316 317 317 318 318 319 319 319 320 321 323 322 323 323 323 323 324 329 339 337 331 330 328 327 330 332 335 337 337 337 339 341 341 340 343 346 348 348 348 349 349 349 349 348 348 348 347 347 347 347 347 347 347 346 346 347 347 346 346
318 319 319 319 318 318 318 318 317 316 317 318 319 321 322 322 323 323 324 323 324 330 340 340 333 330 328 326 326 327 329 333 335 336 339 341 340 340 343 345 347 347 348 349 349 348 349 348 348 348 347 347 347 347 347 347 347 347 347 347 347 346 346
320 322 321 319 318 318 317 316 316 316 316 317 319 322 322 321 323 324 323 323 326 331 336 335 332 329 329 330 330 327 325 327 329 332 335 338 340 341 342 343 344 346 347 347 347 348 348 348 348 348 348 348 348 347 347 347 347 347 347 347 347 346 347
319 319 317 314 315 316 316 316 316 316 316 316 318 321 322 323 323 322 324 326 325 327 332 331 330 329 330 332 332 330 328 325 325 326 329 332 336 339 342 343 343 344 345 346 346 347 347 348 348 348 348 348 348 348 347 347 347 347 347 347 347 347 347
315 315 314 313 313 314 315 316 316 316 316 316 318 320 322 324 323 321 326 330 326 325 329 331 331 332 333 335 334 333 332 328 326 326 325 327 330 333 337 341 342 344 345 345 346 346 347 347 348 348 348 348 348 348 347 348 348 347 347 347 347 347 347
313 313 313 313 313 313 314 315 315 315 316 317 318 320 320 323 324 324 328 333 331 327 326 328 331 333 334 333 331 330 328 327 327 326 325 326 329 331 334 337 340 342 343 344 345 345 346 347 348 348 348 348 348 348 348 348 348 348 347 347 347 347 347
312 312 312 312 313 313 314 315 315 315 316 317 318 320 321 322 324 325 327 331 330 326 328 334 336 340 341 336 329 331 334 335 334 333 330 329 328 331 333 334 336 339 341 343 343 344 346 346 347 347 348 348 348 348 348 348 348 348 348 347 347 347 347
313 313 313 313 313 314 315 315 315 316 316 317 321 326 328 328 327 327 327 328 329 330 337 343 344 347 350 346 341 346 349 349 347 346 342 336 331 330 329 330 332 335 339 341 342 344 345 346 346 347 347 348 348 348 348 348 348 348 348 347 348 347 347
314 314 314 314 314 314 315 315 316 316 318 322 328 334 336 335 333 331 327 327 332 338 343 346 348 350 352 352 353 355 353 353 354 353 350 345 338 333 329 329 330 332 336 340 342 343 344 345 346 346 347 347 348 348 348 348 348 348 348 347 348 348 348
314 314 314 315 315 317 318 319 318 318 322 329 333 336 337 336 336 335 332 332 337 340 342 347 350 350 351 353 353 353 352 353 354 354 354 351 345 340 336 333 330 331 335 338 339 341 343 344 345 346 346 347 347 348 348 348 348 348 348 348 348 348 348
314 314 314 316 318 320 322 323 321 321 326 332 334 335 333 332 331 332 333 333 334 335 339 345 349 350 351 352 352 352 353 352 352 353 355 354 349 342 337 334 332 331 333 337 338 339 341 343 344 346 346 346 347 348 348 348 348 348 348 348 348 348 348
313 314 315 319 321 322 324 325 325 325 328 330 333 332 329 326 326 327 328 329 329 330 335 341 347 350 350 351 352 352 351 351 352 353 353 354 352 344 337 336 335 332 332 336 339 339 341 344 346 346 347 347 347 348 348 348 348 348 348 348 348 349 349
313 314 316 321 322 322 324 325 324 325 327 329 334 335 329 323 323 324 325 325 326 328 331 335 343 350 349 349 352 351 351 351 351 352 354 355 353 345 339 337 336 335 334 336 338 340 343 346 346 346 347 347 348 348 348 348 348 349 349 349 349 349 349
314 315 316 318 320 323 327 326 323 323 325 326 332 337 332 323 321 322 323 323 324 326 329 332 339 348 350 350 352 351 350 351 352 352 354 355 351 344 339 339 337 337 338 338 341 343 345 346 346 346 347 347 348 348 349 348 349 349 349 349 349 349 349
314 314 316 317 319 325 328 325 321 321 323 323 325 332 333 325 321 322 322 322 322 324 327 329 337 347 352 352 352 351 348 350 352 353 354 353 348 341 339 339 338 338 339 340 343 345 346 347 347 346 347 348 348 349 349 349 349 349 349 349 349 349 349
313 314 315 318 319 323 324 322 320 321 323 323 324 333 336 326 320 321 321 320 322 323 324 327 337 349 354 352 350 348 347 351 353 353 354 351 345 340 341 340 339 340 340 341 343 344 346 347 347 347 347 348 348 349 349 348 349 349 349 349 349 349 349
313 313 315 316 318 321 321 319 320 321 321 322 328 338 337 324 319 319 318 319 321 322 322 325 333 344 348 348 347 345 346 352 353 352 354 352 347 342 342 342 341 341 342 342 343 345 345 346 347 347 348 348 348 349 349 349 349 349 349 349 348 348 349
312 314 315 315 317 320 319 318 320 319 320 326 334 336 328 319 317 317 315 317 320 321 321 323 326 329 332 338 344 344 347 352 353 352 353 353 351 347 343 343 344 343 343 344 344 345 345 346 347 348 348 348 349 349 349 349 349 349 348 348 349 349 349
312 313 314 315 318 319 316 318 319 318 323 331 330 323 318 316 316 315 314 315 317 318 319 321 322 322 324 331 339 343 347 352 353 352 353 353 352 351 346 344 345 345 345 345 345 345 346 346 347 348 348 348 349 349 349 349 348 348 348 348 349 349 350
314 314 314 316 319 318 315 318 319 317 319 322 318 314 316 316 313 312 313 314 313 314 317 319 320 321 322 326 334 340 347 351 351 351 353 352 352 352 350 348 347 346 346 346 346 347 347 347 348 348 348 349 349 349 349 349 349 349 349 349 350 350 350
316 317 317 317 317 316 315 316 317 315 314 314 313 314 316 314 311 310 311 312 311 312 315 318 319 318 318 322 330 338 345 350 350 351 352 352 352 353 352 351 350 348 347 347 347 348 348 348 349 349 348 349 349 349 349 349 349 349 349 349 350 350 350
313 316 316 314 314 314 314 314 314 313 313 312 312 314 314 313 311 310 310 311 311 311 315 318 319 317 316 319 326 334 342 347 350 349 350 351 352 353 353 354 352 351 350 348 348 348 349 349 349 349 349 349 349 349 349 349 349 349 349 349 349 349 349
312 314 314 312 311 312 314 313 312 312 312 312 313 313 313 312 311 310 310 310 310 311 315 318 317 316 315 317 323 331 339 345 349 348 348 349 350 351 353 354 354 354 353 351 350 349 349 349 349 350 350 349 349 350 349 349 349 348 348 348 349 349 350
312 314 313 311 311 312 314 315 314 313 313 313 313 313 312 311 311 311 311 311 310 311 314 317 318 316 314 315 321 329 337 343 346 347 347 348 348 349 350 351 353 354 354 354 353 351 350 349 349 349 349 350 349 349 349 349 349 349 350 350 350 350 351
312 312 312 311 311 313 315 315 314 313 312 312 312 312 312 311 312 312 311 311 311 311 313 316 317 316 314 314 318 326 334 340 345 346 346 346 347 347 347 348 350 351 352 353 353 353 353 353 352 351 351 351 350 350 350 350 349 350 351 352 353 355 356
311 311 311 311 311 314 315 314 313 311 311 311 312 312 312 311 312 312 312 311 311 311 312 314 316 317 315 313 316 322 330 337 342 345 345 345 346 346 346 346 346 347 347 349 350 351 353 354 355 355 355 354 354 354 353 353 353 354 356 357 358 359 358
311 311 311 310 311 312 312 312 311 311 312 312 312 312 312 312 312 313 312 312 312 312 312 312 314 316 316 314 314 320 327 334 339 343 345 345 344 345 345 345 345 344 343 344 345 346 347 349 352 355 356 357 358 358 358 358 358 359 360 360 360 359 359
311 311 310 310 310 310 311 311 311 311 312 312 312 312 312 312 312 312 312 312 311 312 312 312 312 314 315 314 313 317 326 333 336 339 344 345 343 343 344 344 344 343 342 341 342 342 343 344 345 347 350 353 355 357 359 360 361 361 361 360 360 359 359
310 310 310 310 310 310 311 311 311 312 312 313 313 313 313 312 312 312 312 312 311 311 312 312 311 312 314 314 312 315 323 331 334 336 341 344 342 342 343 343 344 344 343 342 342 342 343 344 344 344 345 345 346 348 349 351 353 355 356 357 357 357 357
310 309 309 309 310 310 311 311 311 313 314 314 314 314 314 313 313 312 311 312 311 311 312 312 312 312 313 313 312 314 319 328 333 334 337 341 342 341 342 342 343 343 343 343 344 344 345 346 347 347 348 347 347 348 349 348 346 345 344 347 349 349 350
Wind_Speed
4 1 4 2 5 6 6 10 12 10 9 8 6 5 2 3 7 6 6 7 5 4 9 9 7 6 9 14 17 20 22 22 22 22 25 29 30 32 33 35 39 42 45 48 49 49 50 50 50 51 52 50 49 48 47 46 45 44 42 41 40 38 36
3 4 5 5 7 5 4 9 11 8 8 9 8 6 5 6 9 5 6 10 9 7 7 7 11 11 10 11 12 16 19 19 21 23 26 30 33 34 36 39 43 45 47 48 49 49 50 52 52 52 51 50 48 47 46 46 46 45 44 42 41 39 38
3 6 4 7 9 11 9 6 8 8 8 10 8 7 7 9 9 6 6 8 9 10 7 5 11 14 13 12 11 13 15 17 21 24 26 30 32 33 35 38 40 43 46 48 49 49 49 51 52 52 51 49 48 48 47 47 46 44 43 42 42 41 39
5 3 5 9 10 12 11 7 7 8 7 7 9 8 6 6 7 6 6 7 8 9 7 7 9 12 13 13 10 10 12 17 22 24 25 28 30 32 34 37 38 42 47 48 50 51 50 50 52 52 50 49 49 49 49 48 47 45 44 43 42 41 40
5 3 5 7 5 5 8 8 9 10 7 4 6 8 8 7 7 6 6 7 7 5 5 10 12 11 12 12 9 8 12 19 23 24 25 28 31 35 39 40 40 43 48 48 49 51 49 47 48 50 49 49 50 49 50 50 48 47 46 44 43 42 41
5 3 3 2 2 2 2 4 5 7 6 5 8 10 10 9 8 6 6 7 6 2 3 8 13 13 13 14 12 10 13 19 23 24 26 30 35 39 42 43 41 43 47 48 47 48 45 42 45 49 49 49 50 51 51 51 50 49 47 45 45 43 42
8 8 6 5 4 3 3 3 3 3 3 4 6 7 7 9 11 8 7 9 7 3 2 4 9 9 10 11 12 12 14 19 23 26 28 32 38 42 44 43 42 42 47 49 47 46 46 47 49 51 50 50 52 52 52 52 51 49 47 46 45 43 42
9 11 6 2 2 4 4 2 1 2 2 2 4 5 3 5 10 9 8 9 7 4 2 4 7 7 8 10 9 10 13 13 19 26 29 31 37 42 43 41 39 41 43 44 43 45 48 51 51 50 51 52 52 52 52 53 51 49 48 47 46 44 42
6 7 5 4 4 3 2 1 1 1 2 4 5 5 3 4 8 11 10 8 6 4 3 4 9 7 7 10 10 10 12 11 12 16 21 28 35 40 41 41 40 39 39 41 44 46 48 49 50 50 52 53 52 53 53 53 52 50 49 48 47 44 43
7 6 4 3 1 1 1 1 1 0 2 4 3 2 4 5 6 10 11 7 5 4 4 7 11 11 10 10 9 9 12 15 14 12 14 20 28 34 38 41 43 42 41 44 46 46 47 48 50 51 52 53 53 53 53 53 52 51 50 48 47 45 44
6 3 1 2 4 4 4 3 3 2 1 1 1 1 3 2 2 7 7 4 8 8 5 7 11 13 14 10 7 7 11 15 17 16 17 18 23 28 32 35 39 39 40 43 45 46 47 49 51 52 53 53 53 53 53 53 52 51 50 49 47 46 45
12 10 7 6 7 8 8 8 8 6 2 2 3 5 3 3 4 6 2 1 8 8 5 7 9 9 10 9 6 6 8 11 13 14 16 18 22 26 29 31 34 36 38 41 44 46 48 49 51 52 52 52 52 53 54 52 52 52 51 50 48 46 46
14 13 11 8 8 9 10 11 12 11 8 6 6 8 8 5 5 6 6 8 8 4 4 7 8 7 7 10 12 12 12 13 12 11 13 15 18 24 29 33 35 38 41 42 44 47 49 50 51 52 52 52 52 52 53 52 52 52 51 50 48 46 46
14 15 11 9 10 12 12 13 13 13 11 9 9 9 11 11 10 9 12 14 11 6 6 9 11 11 11 14 17 16 15 14 13 13 14 16 17 20 26 31 35 39 42 44 46 48 49 50 51 52 52 53 53 53 52 52 52 51 50 49 48 47 47
12 13 11 10 11 12 13 13 13 12 12 10 9 9 8 9 11 11 13 15 11 5 4 9 13 13 11 11 12 12 11 12 13 14 16 20 24 24 26 29 33 37 41 44 46 47 48 50 51 52 53 54 54 53 52 52 52 51 50 48 47 47 47
8 6 5 7 8 10 13 15 13 13 11 7 5 4 3 3 6 8 9 8 5 3 5 10 11 9 7 7 8 10 11 12 13 14 17 22 28 32 34 33 33 37 41 44 46 47 49 50 51 52 53 53 52 52 52 52 51 50 49 47 47 47 47
6 3 2 4 5 8 11 12 12 14 11 7 5 2 3 3 2 5 5 3 5 8 9 9 7 5 4 4 6 9 11 13 14 15 18 23 27 31 35 35 34 37 40 43 45 47 49 51 51 52 52 52 52 52 52 51 51 50 49 47 46 47 47
5 4 4 4 7 8 5 2 6 12 11 8 7 5 6 6 4 4 5 7 10 11 10 9 8 6 5 5 6 8 10 13 16 17 19 22 25 28 30 31 33 36 40 43 44 46 48 50 51 52 51 50 50 50 50 50 50 49 48 47 46 46 45
6 6 5 6 8 6 1 6 4 5 5 6 10 11 10 9 10 11 10 11 13 13 14 14 13 11 11 10 8 8 9 12 15 19 20 21 22 24 25 27 30 34 39 43 44 46 48 47 48 50 49 48 48 48 49 49 48 48 47 46 45 44 44
5 5 6 8 3 1 2 3 7 4 2 2 7 10 10 12 12 12 11 13 14 15 17 18 16 14 13 13 10 8 10 12 15 19 20 20 21 21 22 25 29 32 38 42 44 46 45 45 46 48 48 48 48 48 48 47 46 46 45 44 43 42 42
5 6 7 5 3 3 6 3 5 5 3 4 2 4 6 10 13 12 12 13 15 17 19 22 21 15 10 10 9 7 13 14 15 17 18 19 20 18 20 23 26 30 34 38 41 42 42 43 46 46 46 47 47 46 45 45 45 45 44 43 42 41 40
5 7 7 5 4 4 5 2 5 6 6 7 6 3 4 8 13 15 14 13 16 17 18 24 25 15 8 6 4 9 17 16 16 16 16 15 15 15 17 19 22 27 32 35 38 38 38 40 43 44 45 47 46 45 44 44 44 44 43 42 41 40 39
4 6 7 6 5 3 2 4 7 8 8 9 7 6 2 6 14 18 17 15 17 18 19 24 21 9 4 4 7 16 20 16 13 15 15 12 10 11 13 16 20 24 29 33 34 35 36 39 41 42 44 46 46 45 44 43 42 43 42 41 39 38 37
5 7 7 5 4 1 4 7 10 12 12 8 6 8 2 7 13 17 18 17 18 21 23 21 13 6 5 8 13 21 20 11 10 13 12 10 7 7 11 15 19 21 26 31 32 34 36 37 39 41 43 44 44 44 43 42 41 41 39 36 34 34 33
7 9 8 5 4 2 6 11 13 13 10 4 5 5 1 8 12 17 20 20 20 23 24 17 11 14 20 19 18 20 14 7 7 9 8 8 5 3 10 16 18 20 24 28 29 31 33 34 37 40 42 43 42 41 40 40 39 36 33 31 31 31 32
6 7 7 6 3 4 11 15 11 9 4 3 2 2 4 8 14 19 20 21 23 26 26 19 17 25 30 25 20 17 9 9 9 7 6 7 6 3 9 17 21 21 23 25 26 28 29 31 35 38 39 40 40 39 38 37 34 32 30 29 29 30 30
4 6 6 6 3 6 16 15 7 6 4 1 3 6 6 10 17 20 20 22 26 30 30 26 25 28 31 29 24 19 12 14 12 10 10 10 8 7 8 16 22 24 25 27 27 28 29 31 34 35 36 37 36 36 35 32 30 29 27 27 28 28 28
3 5 4 1 2 6 13 10 3 4 4 5 7 8 8 11 18 20 21 24 29 32 30 28 27 30 33 33 30 23 17 19 18 14 15 14 12 10 8 11 19 24 27 29 30 31 31 32 32 32 33 34 34 33 31 29 27 26 25 25 26 26 26
2 3 0 3 6 8 6 2 3 4 3 4 9 9 9 13 16 18 21 25 30 32 29 26 27 30 34 34 32 27 22 22 23 19 18 18 16 14 12 11 15 19 24 27 30 31 32 31 31 31 32 32 32 32 30 27 26 24 23 24 24 24 24
4 3 2 6 10 12 6 4 4 3 2 4 9 10 11 14 15 17 21 24 28 30 27 25 27 31 34 33 32 29 26 25 25 23 22 21 19 19 18 17 15 16 19 23 26 29 31 31 32 32 31 30 30 30 29 26 25 24 23 23 24 24 24
4 2 3 9 15 14 5 6 4 1 4 8 13 14 15 14 13 15 20 22 25 28 25 23 26 31 32 32 32 31 29 27 25 24 23 22 21 21 21 21 20 20 20 21 23 25 27 28 30 31 30 29 29 29 28 27 27 26 25 24 24 24 23
4 2 5 14 18 10 3 5 2 9 13 17 20 20 19 16 13 14 18 20 23 26 24 23 25 29 31 31 32 33 31 28 26 25 23 21 20 20 20 20 22 23 23 23 22 23 23 24 25 27 28 28 28 28 28 28 28 27 26 25 24 23 23
3 2 7 16 16 3 4 3 13 18 21 23 23 21 20 18 15 16 17 19 21 23 22 22 24 27 30 31 31 32 31 29 26 24 22 21 20 19 19 18 19 20 21 21 21 22 22 22 23 25 26 27 27 27 27 26 26 25 25 24 23 22 21
4 5 9 13 9 4 8 17 23 23 24 24 23 22 21 18 15 16 19 20 20 20 20 21 22 25 28 29 30 31 31 30 26 22 20 21 20 19 18 18 18 19 18 17 18 18 18 18 20 22 24 25 25 25 26 26 26 25 25 24 23 22 22
6 10 14 14 10 10 16 22 24 25 26 25 24 23 22 19 15 15 18 21 21 21 21 20 20 23 25 26 29 31 29 27 27 23 20 19 20 19 19 19 19 19 17 15 15 15 15 14 15 17 19 20 21 22 23 24 25 26 26 26 26 26 25
9 13 17 17 14 14 18 21 23 24 23 22 24 23 22 19 17 15 16 18 20 21 21 19 19 21 22 23 27 30 28 25 28 27 20 18 18 18 19 19 18 18 18 16 15 14 13 12 12 13 15 15 16 18 19 20 22 24 25 25 26 26 26
14 17 20 18 15 16 18 20 21 19 16 17 20 21 19 17 15 14 14 16 17 18 18 19 19 19 19 20 23 27 26 23 25 27 24 21 18 17 18 18 17 17 17 17 15 14 13 12 12 13 13 13 13 14 15 15 17 19 21 23 23 24 24
Wind_Direction
145 65 349 303 233 216 186 195 212 213 202 207 224 235 212 219 246 228 199 232 247 273 277 250 216 226 217 213 214 211 211 206 202 203 203 203 204 203 202 204 207 209 211 214 214 213 214 215 216 216 218 220 221 222 223 224 225 225 226 226 225 224 223
141 347 304 250 247 241 194 202 202 182 191 212 225 232 210 213 236 222 196 232 236 230 251 220 195 210 219 211 209 211 209 201 199 204 204 204 204 204 204 207 210 211 212 214 214 213 215 217 217 217 219 221 221 222 223 223 224 225 225 226 226 226 225
306 332 270 234 230 224 231 230 182 172 203 208 204 223 225 222 234 230 211 234 241 229 231 202 190 203 217 216 207 209 204 195 202 209 206 205 205 202 203 207 208 209 212 214 214 214 215 217 218 219 220 220 220 222 223 224 225 225 225 226 226 227 227
308 314 213 221 216 209 225 239 196 196 222 214 201 211 224 226 232 235 222 225 241 236 227 229 217 208 217 218 206 205 202 196 203 209 207 205 203 202 205 207 207 209 213 214 215 215 214 215 218 219 218 219 219 220 222 223 224 225 226 226 226 226 227
266 226 188 208 209 197 212 221 213 210 210 209 213 212 214 225 231 228 223 227 241 230 200 223 232 226 225 226 216 207 202 202 206 207 205 203 202 206 211 210 208 211 214 214 215 216 214 211 214 216 216 217 217 218 220 222 223 224 224 225 226 227 226
240 200 101 84 50 21 242 227 225 224 220 216 219 214 208 219 232 228 226 241 248 217 177 217 225 223 221 220 220 217 205 205 209 207 205 207 209 211 215 214 210 210 213 213 212 213 208 204 210 215 214 214 215 217 220 222 222 223 224 224 226 226 226
267 275 296 306 279 253 236 245 271 301 293 245 228 225 208 211 223 224 233 251 252 218 196 234 232 232 236 230 224 223 215 205 207 211 210 212 216 218 217 216 212 211 215 214 210 208 206 207 213 216 213 213 216 218 220 221 222 224 224 224 225 225 225
276 273 270 289 235 188 176 208 301 341 326 327 284 273 281 232 218 212 224 244 246 217 186 248 256 256 268 273 264 247 238 220 212 216 214 211 218 221 218 214 211 211 214 211 206 206 208 209 213 214 213 214 216 217 218 220 222 223 223 224 225 225 224
231 226 189 151 155 143 141 164 107 67 7 348 298 256 276 264 220 212 224 237 242 221 170 222 252 252 250 260 263 258 257 253 233 223 218 215 217 218 216 213 211 209 209 209 207 208 209 209 211 213 214 215 215 216 219 220 221 222 222 223 225 225 224
209 200 186 186 181 68 358 170 169 187 35 6 322 237 232 243 217 218 230 236 237 222 183 213 240 253 255 245 237 239 248 252 250 239 229 224 220 217 215 215 213 210 210 212 212 211 211 210 210 212 214 215 215 217 219 219 219 220 221 223 224 225 224
259 262 286 319 325 313 291 290 282 265 117 72 336 217 227 268 270 235 225 232 248 237 206 212 228 243 258 258 235 221 233 243 246 243 237 233 228 223 220 218 215 211 211 212 212 211 211 210 210 212 214 214 214 216 218 218 219 220 220 222 223 224 224
270 283 291 294 299 289 282 289 287 279 265 216 209 220 253 339 303 248 220 295 261 247 219 229 234 236 248 261 256 238 244 250 251 251 243 233 229 229 225 220 217 213 211 211 211 211 211 210 210 212 213 213 214 216 217 216 217 219 220 221 222 223 223
271 278 282 279 277 271 269 272 275 277 272 243 225 237 255 267 254 263 308 307 285 295 308 282 286 293 283 282 287 295 298 290 285 282 265 242 229 225 223 221 218 216 214 212 211 211 211 210 210 211 211 210 212 215 216 215 215 218 220 221 222 222 222
275 273 271 267 264 266 267 263 262 266 264 254 247 248 248 241 235 250 276 285 285 287 301 307 308 310 309 298 295 300 303 302 302 297 282 267 248 229 222 223 222 219 218 215 213 212 211 210 210 210 210 210 212 215 216 215 215 218 220 221 221 221 222
272 270 267 257 251 257 264 263 258 255 255 253 249 252 251 241 238 239 250 268 276 266 294 312 301 301 308 302 300 309 313 315 314 301 287 278 268 253 241 235 230 225 221 216 213 211 209 210 211 211 211 212 213 214 214 214 215 217 220 221 220 220 221
270 268 263 256 255 259 262 260 254 245 242 238 228 244 270 252 244 238 233 247 274 323 334 312 292 290 304 310 322 328 323 321 316 301 289 280 272 264 255 247 238 230 222 215 212 212 210 210 210 210 211 211 210 210 212 214 214 215 218 220 220 219 221
271 260 262 280 274 262 256 249 231 221 217 203 184 169 26 18 285 247 233 263 339 339 327 312 292 283 293 311 324 319 314 313 304 292 285 279 272 266 260 253 244 234 224 216 215 215 212 210 211 211 210 210 210 211 212 212 212 214 216 218 218 219 220
268 278 300 281 247 240 253 281 205 201 194 176 157 107 45 35 18 335 312 331 340 333 321 309 294 287 290 295 299 302 305 304 297 290 285 282 278 270 261 254 246 237 228 220 216 217 216 213 212 210 207 209 210 209 209 210 210 212 215 216 217 218 220
267 297 287 235 224 221 86 44 58 174 164 138 127 98 59 37 24 4 342 336 335 328 319 310 295 281 277 276 281 301 307 302 299 294 289 290 288 275 260 249 240 233 227 220 215 216 215 210 206 204 204 206 206 205 207 209 209 211 214 215 216 217 219
253 277 236 216 238 310 181 54 35 44 68 126 141 117 69 39 28 9 341 334 333 324 318 315 305 289 276 260 255 296 322 316 308 302 298 300 296 278 257 245 236 226 220 216 214 214 210 203 201 204 204 205 205 205 208 210 209 211 213 215 216 217 218
232 247 240 240 323 299 205 159 31 10 338 320 249 149 87 47 32 9 343 337 336 330 325 322 315 303 282 248 241 302 337 332 317 309 305 304 295 273 251 240 232 222 214 211 210 208 203 199 201 204 203 203 204 203 205 208 209 210 212 214 216 217 218
232 248 254 253 255 218 182 119 6 343 319 308 293 217 114 52 25 5 351 345 341 338 334 327 319 303 266 241 264 331 339 334 325 318 316 311 294 266 244 233 224 216 211 208 206 204 199 197 200 202 201 201 201 201 203 205 206 208 211 214 216 217 218
233 239 243 240 226 191 85 356 338 335 319 296 268 225 169 38 17 4 356 349 346 346 338 328 323 307 246 261 325 333 330 328 326 325 329 327 296 254 231 224 219 212 207 205 203 201 198 197 199 202 201 200 200 201 203 204 205 207 211 215 217 218 219
242 240 240 252 254 282 6 336 328 333 327 305 242 211 189 30 19 9 360 346 341 345 342 337 340 354 331 312 314 321 324 326 327 326 336 345 316 244 212 211 216 211 203 200 199 197 198 199 200 201 200 199 201 202 202 202 205 209 213 216 218 219 220
246 240 237 260 269 352 351 325 326 337 331 283 207 196 42 22 18 13 0 342 336 342 344 344 342 334 334 330 317 316 328 4 360 339 346 3 1 222 197 195 199 201 198 196 196 196 197 199 198 198 199 200 201 201 201 203 207 211 215 216 217 219 221
241 238 242 260 252 32 353 323 324 358 353 212 175 26 18 26 25 14 356 340 338 341 342 341 332 332 341 348 338 328 356 53 39 15 21 29 41 110 177 179 180 186 189 189 192 192 193 196 196 197 199 199 199 200 202 206 210 212 214 214 215 218 220
226 224 231 249 235 20 356 334 333 32 26 338 18 5 4 32 30 12 350 340 342 342 340 337 335 338 347 358 356 352 25 62 54 41 50 54 64 89 142 166 171 176 179 181 184 185 187 192 195 197 197 197 198 200 203 206 209 210 211 213 214 217 219
224 216 206 262 299 353 358 355 37 80 54 32 20 6 360 22 26 10 349 341 342 344 340 336 338 344 350 359 6 5 25 57 61 54 57 64 69 76 101 149 165 170 174 177 179 181 183 188 192 195 196 195 196 199 201 203 204 205 207 209 211 215 218
283 250 186 4 330 330 346 39 122 119 99 23 5 2 357 5 12 5 350 341 340 344 344 338 342 349 352 1 11 11 19 47 60 60 59 61 65 73 90 125 151 162 169 173 177 178 180 185 190 193 195 195 194 195 197 198 197 198 199 201 204 209 212
281 270 9 2 339 332 316 193 167 124 100 357 348 348 350 356 1 357 349 343 339 342 344 339 342 350 353 359 11 19 26 42 55 60 62 61 64 73 87 105 122 139 154 164 171 173 176 181 186 190 195 197 196 194 193 191 189 188 189 192 197 201 205
302 285 28 359 337 325 294 188 179 343 334 324 326 328 334 343 349 347 345 343 338 339 341 337 338 347 351 355 8 22 32 41 49 55 59 60 61 66 77 92 104 117 130 141 153 163 169 175 180 185 191 196 197 195 191 188 188 187 187 191 196 199 203
328 296 341 343 333 317 190 156 316 326 323 317 315 317 320 324 329 333 336 336 334 335 338 336 336 343 349 356 10 22 31 41 49 53 55 58 62 65 70 81 92 101 110 118 128 139 150 160 170 177 183 188 191 192 190 190 191 192 191 192 195 198 201
333 313 335 343 340 324 158 306 313 317 319 314 308 308 311 315 322 325 326 330 330 329 332 336 335 338 346 358 10 20 28 37 47 54 56 57 59 63 65 70 78 86 94 104 113 120 129 141 154 164 171 177 181 184 188 190 191 193 193 193 194 196 199
359 351 340 339 334 283 286 303 305 309 315 312 305 303 303 308 317 319 317 322 326 325 329 335 333 335 345 357 7 17 27 35 39 49 60 59 56 60 63 64 70 76 81 92 104 112 120 132 146 156 164 171 174 178 182 185 187 190 193 194 195 198 200
341 339 334 329 314 282 283 293 298 304 309 306 299 297 298 300 306 308 309 315 319 322 329 337 337 337 346 357 6 15 25 33 34 40 59 67 60 59 63 63 64 66 69 80 94 103 111 124 140 152 160 167 174 178 183 186 187 190 193 195 197 199 202
333 337 336 328 311 293 292 299 302 303 304 301 294 293 296 298 297 296 300 306 310 314 324 336 342 345 351 1 11 14 18 28 32 35 53 72 67 60 64 64 60 59 60 67 79 89 96 109 125 138 147 156 166 174 181 187 191 195 198 200 202 203 204
347 346 342 332 313 303 308 312 309 305 305 302 296 295 300 300 291 285 289 296 299 304 314 329 341 350 357 3 12 14 13 21 28 30 41 60 63 56 59 60 56 56 57 58 69 82 89 97 110 119 125 132 142 151 160 170 181 190 196 200 202 203 205